ANA248 RJFF-RJTT

Flight info

Callsign ANA248
Flight time 1h 34m
Altitude 35000
Route IPRIR Y231 OMKAT Y235 FLUTE Y23 ARTIC Y71 XAC
Aircraft A321/M-SDE3FGHIRWY/LB1

Departure

Time 2026-02-20 04:55
Airport Fukuoka Airport (RJFF)

Arrival

Time 2026-02-20 06:30
Airport Tokyo Haneda International Airport (RJTT)
Time Latitude Longitude Altitude Speed Heading
2026-02-20 04:02 33.59837 130.44635 24 ft 0 kts 60°
2026-02-20 04:41 33.59835 130.44631 25 ft 2 kts 60°
2026-02-20 04:42 33.59826 130.44611 25 ft 3 kts 64°
2026-02-20 04:42 33.59818 130.44589 27 ft 3 kts 69°
2026-02-20 04:42 33.59811 130.44566 26 ft 3 kts 74°
2026-02-20 04:42 33.59806 130.44542 27 ft 3 kts 80°
2026-02-20 04:43 33.59803 130.44518 26 ft 3 kts 88°
2026-02-20 04:43 33.59804 130.44496 28 ft 2 kts 97°
2026-02-20 04:43 33.59805 130.44479 27 ft 0 kts 97°
2026-02-20 04:46 33.59802 130.44493 25 ft 4 kts 110°
2026-02-20 04:46 33.59770 130.44515 27 ft 7 kts 160°
2026-02-20 04:46 33.59718 130.44537 25 ft 10 kts 161°
2026-02-20 04:46 33.59646 130.44579 25 ft 12 kts 151°
2026-02-20 04:47 33.59581 130.44621 29 ft 8 kts 151°
2026-02-20 04:47 33.59541 130.44648 28 ft 5 kts 150°
2026-02-20 04:47 33.59502 130.44675 28 ft 8 kts 150°
2026-02-20 04:47 33.59444 130.44714 26 ft 10 kts 150°
2026-02-20 04:48 33.59377 130.44759 27 ft 12 kts 150°
2026-02-20 04:48 33.59305 130.44810 27 ft 12 kts 150°
2026-02-20 04:48 33.59227 130.44862 28 ft 13 kts 149°
2026-02-20 04:48 33.59175 130.44898 28 ft 12 kts 150°
2026-02-20 04:49 33.59100 130.44949 29 ft 8 kts 150°
2026-02-20 04:49 33.59046 130.44987 29 ft 10 kts 150°
2026-02-20 04:49 33.59001 130.45017 30 ft 13 kts 150°
2026-02-20 04:49 33.58911 130.45080 31 ft 17 kts 150°
2026-02-20 04:50 33.58814 130.45148 30 ft 15 kts 150°
2026-02-20 04:50 33.58729 130.45205 31 ft 13 kts 150°
2026-02-20 04:50 33.58642 130.45263 32 ft 17 kts 150°
2026-02-20 04:50 33.58541 130.45332 33 ft 16 kts 150°
2026-02-20 04:51 33.58452 130.45393 34 ft 15 kts 150°
2026-02-20 04:51 33.58340 130.45469 34 ft 20 kts 149°
2026-02-20 04:51 33.58224 130.45550 35 ft 18 kts 150°
2026-02-20 04:51 33.58101 130.45632 34 ft 23 kts 151°
2026-02-20 04:52 33.57956 130.45732 38 ft 24 kts 150°
2026-02-20 04:52 33.57816 130.45825 39 ft 22 kts 152°
2026-02-20 04:52 33.57690 130.45911 40 ft 20 kts 149°
2026-02-20 04:52 33.57579 130.45952 41 ft 15 kts 205°
2026-02-20 04:53 33.57553 130.45912 41 ft 0 kts 243°
2026-02-20 04:53 33.57552 130.45911 41 ft 1 kts 243°
2026-02-20 04:53 33.57537 130.45877 40 ft 8 kts 242°
2026-02-20 04:54 33.57518 130.45794 42 ft 11 kts 311°
2026-02-20 04:54 33.57615 130.45733 42 ft 18 kts 332°
2026-02-20 04:54 33.57783 130.45618 40 ft 52 kts 330°
2026-02-20 04:54 33.58297 130.45268 34 ft 112 kts 330°
2026-02-20 04:55 33.59114 130.44709 39 ft 155 kts 330°
2026-02-20 04:55 33.60072 130.44053 513 ft 159 kts 329°
2026-02-20 04:55 33.61035 130.43386 1079 ft 161 kts 329°
2026-02-20 04:55 33.62008 130.42724 1723 ft 163 kts 328°
2026-02-20 04:56 33.63028 130.42042 2289 ft 173 kts 328°
2026-02-20 04:56 33.64136 130.41287 2545 ft 195 kts 327°
2026-02-20 04:56 33.65512 130.40803 2766 ft 224 kts
2026-02-20 04:56 33.67028 130.41599 3092 ft 254 kts 43°
2026-02-20 04:57 33.68121 130.43328 3769 ft 266 kts 59°
2026-02-20 04:57 33.68975 130.45335 4665 ft 271 kts 65°
2026-02-20 04:57 33.69557 130.47490 5496 ft 276 kts 87°
2026-02-20 04:57 33.69148 130.49736 6279 ft 282 kts 121°
2026-02-20 04:58 33.67800 130.51427 6991 ft 285 kts 147°
2026-02-20 04:58 33.66114 130.52709 7766 ft 288 kts 153°
2026-02-20 04:58 33.64334 130.53852 8562 ft 291 kts 158°
2026-02-20 04:58 33.62429 130.54686 9314 ft 294 kts 164°
2026-02-20 04:59 33.60497 130.55535 10097 ft 298 kts 162°
2026-02-20 04:59 33.58504 130.56478 10401 ft 319 kts 161°
2026-02-20 04:59 33.56374 130.57526 10555 ft 343 kts 160°
2026-02-20 04:59 33.54102 130.58668 10760 ft 363 kts 160°
2026-02-20 05:00 33.51717 130.59880 11286 ft 371 kts 160°
2026-02-20 05:00 33.49357 130.61082 11919 ft 375 kts 160°
2026-02-20 05:00 33.46914 130.62334 12575 ft 380 kts 158°
2026-02-20 05:00 33.44597 130.63912 13231 ft 388 kts 147°
2026-02-20 05:01 33.42515 130.66014 13878 ft 396 kts 136°
2026-02-20 05:01 33.40711 130.68537 14417 ft 402 kts 131°
2026-02-20 05:01 33.38931 130.71147 14947 ft 408 kts 131°
2026-02-20 05:01 33.37121 130.73786 15446 ft 413 kts 131°
2026-02-20 05:02 33.35366 130.76543 15956 ft 421 kts 124°
2026-02-20 05:02 33.33952 130.79637 16427 ft 428 kts 114°
2026-02-20 05:02 33.32977 130.83019 16902 ft 434 kts 103°
2026-02-20 05:02 33.32516 130.86592 17368 ft 437 kts 91°
2026-02-20 05:03 33.32613 130.90229 17829 ft 439 kts 79°
2026-02-20 05:03 33.33258 130.93797 18309 ft 439 kts 69°
2026-02-20 05:03 33.34126 130.97310 18758 ft 443 kts 69°
2026-02-20 05:03 33.34996 131.00860 19178 ft 447 kts 68°
2026-02-20 05:04 33.35869 131.04444 19604 ft 451 kts 68°
2026-02-20 05:04 33.36746 131.08064 20013 ft 455 kts 68°
2026-02-20 05:04 33.37639 131.11765 20421 ft 460 kts 68°
2026-02-20 05:04 33.38497 131.15478 20843 ft 466 kts 72°
2026-02-20 05:05 33.39098 131.19365 21270 ft 472 kts 75°
2026-02-20 05:05 33.39673 131.23249 21687 ft 476 kts 75°
2026-02-20 05:05 33.40260 131.27163 22092 ft 480 kts 75°
2026-02-20 05:05 33.40854 131.31108 22502 ft 484 kts 74°
2026-02-20 05:06 33.41452 131.35083 22914 ft 488 kts 74°
2026-02-20 05:06 33.42062 131.39147 23318 ft 492 kts 74°
2026-02-20 05:06 33.42667 131.43202 23722 ft 496 kts 74°
2026-02-20 05:06 33.43270 131.47283 24053 ft 500 kts 74°
2026-02-20 05:07 33.43875 131.51398 24369 ft 504 kts 74°
2026-02-20 05:07 33.44482 131.55550 24694 ft 508 kts 74°
2026-02-20 05:07 33.45091 131.59727 25007 ft 511 kts 74°
2026-02-20 05:07 33.45706 131.63940 25276 ft 515 kts 75°
2026-02-20 05:08 33.46331 131.68236 25585 ft 519 kts 75°
2026-02-20 05:08 33.46950 131.72502 25878 ft 523 kts 75°
2026-02-20 05:08 33.47576 131.76809 26187 ft 526 kts 75°
2026-02-20 05:08 33.48206 131.81140 26489 ft 529 kts 75°
2026-02-20 05:09 33.48838 131.85498 26784 ft 533 kts 75°
2026-02-20 05:09 33.49476 131.89888 27065 ft 537 kts 74°
2026-02-20 05:09 33.50118 131.94306 27342 ft 540 kts 75°
2026-02-20 05:09 33.50760 131.98751 27633 ft 543 kts 75°
2026-02-20 05:10 33.51402 132.03228 27912 ft 547 kts 75°
2026-02-20 05:10 33.52043 132.07731 28178 ft 550 kts 75°
2026-02-20 05:10 33.52689 132.12263 28450 ft 554 kts 75°
2026-02-20 05:10 33.53337 132.16825 28733 ft 557 kts 75°
2026-02-20 05:11 33.53986 132.21422 29009 ft 560 kts 75°
2026-02-20 05:11 33.54630 132.26017 29374 ft 560 kts 75°
2026-02-20 05:11 33.55364 132.30594 29722 ft 557 kts 69°
2026-02-20 05:11 33.56502 132.34993 30078 ft 549 kts 62°
2026-02-20 05:12 33.57796 132.39304 30394 ft 550 kts 62°
2026-02-20 05:12 33.59088 132.43625 30707 ft 550 kts 62°
2026-02-20 05:12 33.60375 132.47943 31037 ft 550 kts 63°
2026-02-20 05:12 33.61661 132.52273 31389 ft 551 kts 63°
2026-02-20 05:13 33.62940 132.56597 31732 ft 551 kts 63°
2026-02-20 05:13 33.64219 132.60929 32084 ft 551 kts 63°
2026-02-20 05:13 33.65494 132.65257 32404 ft 551 kts 64°
2026-02-20 05:13 33.66772 132.69601 32656 ft 551 kts 64°
2026-02-20 05:14 33.68047 132.73937 33006 ft 551 kts 64°
2026-02-20 05:14 33.69326 132.78274 33351 ft 551 kts 64°
2026-02-20 05:14 33.70606 132.82617 33671 ft 551 kts 64°
2026-02-20 05:14 33.71893 132.87015 34012 ft 552 kts 64°
2026-02-20 05:15 33.73143 132.91316 34314 ft 552 kts 65°
2026-02-20 05:15 33.73997 132.94255 34480 ft 552 kts 65°
2026-02-20 05:15 33.75694 133.00086 34799 ft 553 kts 65°
2026-02-20 05:15 33.76540 133.02983 34967 ft 554 kts 65°
2026-02-20 05:16 33.77815 133.07349 35103 ft 555 kts 64°
2026-02-20 05:16 33.79091 133.11729 35142 ft 554 kts 65°
2026-02-20 05:16 33.81627 133.20458 35138 ft 553 kts 65°
2026-02-20 05:17 33.84145 133.29180 35131 ft 552 kts 65°
2026-02-20 05:17 33.86670 133.37946 35137 ft 551 kts 65°
2026-02-20 05:18 33.89171 133.46662 35127 ft 549 kts 65°
2026-02-20 05:18 33.91664 133.55349 35138 ft 549 kts 65°
2026-02-20 05:19 33.94151 133.64029 35131 ft 549 kts 65°
2026-02-20 05:19 33.96627 133.72741 35134 ft 550 kts 66°
2026-02-20 05:20 33.99093 133.81451 35141 ft 549 kts 66°
2026-02-20 05:21 34.02795 133.94511 35126 ft 548 kts 66°
2026-02-20 05:21 34.04724 134.03454 35115 ft 553 kts 73°
2026-02-20 05:22 34.06380 134.12518 35114 ft 553 kts 74°
2026-02-20 05:22 34.08033 134.21576 35133 ft 553 kts 74°
2026-02-20 05:23 34.09691 134.30647 35152 ft 553 kts 74°
2026-02-20 05:23 34.11339 134.39712 35159 ft 553 kts 74°
2026-02-20 05:24 34.12978 134.48772 35158 ft 552 kts 74°
2026-02-20 05:24 34.14612 134.57829 35160 ft 552 kts 74°
2026-02-20 05:25 34.16217 134.66818 35160 ft 552 kts 75°
2026-02-20 05:25 34.17838 134.75941 35159 ft 551 kts 75°
2026-02-20 05:26 34.19462 134.85056 35161 ft 551 kts 75°
2026-02-20 05:26 34.21065 134.94102 35167 ft 551 kts 75°
2026-02-20 05:27 34.22646 135.03154 35139 ft 553 kts 77°
2026-02-20 05:27 34.24205 135.12339 35142 ft 562 kts 78°
2026-02-20 05:28 34.25752 135.21614 35140 ft 563 kts 78°
2026-02-20 05:28 34.27307 135.30892 35140 ft 564 kts 78°
2026-02-20 05:29 34.28871 135.40188 35139 ft 564 kts 78°
2026-02-20 05:29 34.30426 135.49484 35139 ft 564 kts 78°
2026-02-20 05:30 34.31962 135.58778 35135 ft 564 kts 78°
2026-02-20 05:30 34.33489 135.68085 35132 ft 564 kts 78°
2026-02-20 05:31 34.35017 135.77397 35139 ft 564 kts 78°
2026-02-20 05:31 34.36544 135.86706 35146 ft 564 kts 78°
2026-02-20 05:32 34.38051 135.96021 35148 ft 564 kts 78°
2026-02-20 05:32 34.39553 136.05324 35146 ft 564 kts 78°
2026-02-20 05:33 34.41066 136.14719 35129 ft 564 kts 78°
2026-02-20 05:33 34.42556 136.24039 35135 ft 564 kts 79°
2026-02-20 05:34 34.44033 136.33372 35140 ft 564 kts 79°
2026-02-20 05:34 34.45521 136.42767 35141 ft 564 kts 79°
2026-02-20 05:35 34.47007 136.52106 35133 ft 564 kts 79°
2026-02-20 05:35 34.48484 136.61447 35131 ft 565 kts 79°
2026-02-20 05:36 34.49943 136.70795 35132 ft 565 kts 79°
2026-02-20 05:36 34.51393 136.80177 35132 ft 566 kts 79°
2026-02-20 05:37 34.52826 136.89631 35132 ft 566 kts 79°
2026-02-20 05:37 34.53877 136.99073 35128 ft 565 kts 91°
2026-02-20 05:38 34.53947 137.08586 35132 ft 564 kts 91°
2026-02-20 05:38 34.54017 137.18099 35139 ft 564 kts 91°
2026-02-20 05:39 34.54087 137.27657 35140 ft 564 kts 91°
2026-02-20 05:39 34.54149 137.37209 35128 ft 564 kts 91°
2026-02-20 05:40 34.54196 137.46727 35121 ft 565 kts 92°
2026-02-20 05:40 34.54232 137.56259 35116 ft 565 kts 92°
2026-02-20 05:41 34.54270 137.65793 35116 ft 566 kts 92°
2026-02-20 05:41 34.54298 137.75336 35125 ft 566 kts 92°
2026-02-20 05:42 34.54313 137.84892 35125 ft 566 kts 92°
2026-02-20 05:42 34.54320 137.94501 35119 ft 566 kts 92°
2026-02-20 05:43 34.54318 138.04049 35116 ft 566 kts 92°
2026-02-20 05:43 34.54312 138.13603 35114 ft 566 kts 92°
2026-02-20 05:44 34.54273 138.26318 35111 ft 566 kts 92°
2026-02-20 05:44 34.54673 138.35854 35113 ft 568 kts 80°
2026-02-20 05:45 34.56941 138.44973 35123 ft 563 kts 62°
2026-02-20 05:45 34.60444 138.53469 35136 ft 561 kts 59°
2026-02-20 05:46 34.62183 138.57664 34973 ft 551 kts 59°
2026-02-20 05:46 34.63880 138.61784 34667 ft 543 kts 59°
2026-02-20 05:46 34.65558 138.65870 34339 ft 537 kts 59°
2026-02-20 05:46 34.67220 138.69916 33946 ft 532 kts 59°
2026-02-20 05:47 34.68862 138.73907 33551 ft 526 kts 60°
2026-02-20 05:47 34.70448 138.77878 33177 ft 521 kts 66°
2026-02-20 05:47 34.71415 138.82155 32775 ft 517 kts 85°
2026-02-20 05:47 34.71551 138.86476 32386 ft 508 kts 93°
2026-02-20 05:48 34.71533 138.90753 31975 ft 503 kts 93°
2026-02-20 05:48 34.71509 138.94976 31599 ft 497 kts 93°
2026-02-20 05:48 34.71484 138.99158 31226 ft 492 kts 93°
2026-02-20 05:48 34.71463 139.03346 30871 ft 486 kts 92°
2026-02-20 05:49 34.71444 139.07415 30471 ft 478 kts 92°
2026-02-20 05:49 34.71423 139.11427 29841 ft 471 kts 92°
2026-02-20 05:49 34.71402 139.15378 29176 ft 464 kts 92°
2026-02-20 05:49 34.71380 139.19259 28298 ft 455 kts 92°
2026-02-20 05:50 34.71356 139.23119 27425 ft 447 kts 92°
2026-02-20 05:50 34.71332 139.26857 26589 ft 438 kts 92°
2026-02-20 05:50 34.71309 139.30527 25774 ft 430 kts 92°
2026-02-20 05:50 34.71283 139.34130 24979 ft 423 kts 93°
2026-02-20 05:51 34.71254 139.37674 24223 ft 416 kts 93°
2026-02-20 05:51 34.71462 139.41143 23456 ft 409 kts 75°
2026-02-20 05:51 34.72529 139.44285 22579 ft 399 kts 59°
2026-02-20 05:51 34.73863 139.47223 21710 ft 394 kts 59°
2026-02-20 05:52 34.75206 139.50141 20877 ft 387 kts 58°
2026-02-20 05:52 34.76516 139.52980 20089 ft 381 kts 59°
2026-02-20 05:52 34.77800 139.55769 19315 ft 375 kts 59°
2026-02-20 05:52 34.79061 139.58516 18574 ft 369 kts 59°
2026-02-20 05:53 34.80299 139.61224 17773 ft 363 kts 59°
2026-02-20 05:53 34.81514 139.63889 16972 ft 357 kts 59°
2026-02-20 05:53 34.82707 139.66508 16211 ft 351 kts 58°
2026-02-20 05:53 34.84161 139.68821 15472 ft 339 kts 39°
2026-02-20 05:54 34.86076 139.70379 14761 ft 326 kts 19°
2026-02-20 05:54 34.88183 139.71281 14021 ft 319 kts 14°
2026-02-20 05:54 34.90278 139.72122 13223 ft 315 kts 14°
2026-02-20 05:54 34.92339 139.72957 12451 ft 310 kts 14°
2026-02-20 05:55 34.94380 139.73787 11704 ft 312 kts 15°
2026-02-20 05:55 34.96453 139.74632 11552 ft 308 kts 15°
2026-02-20 05:55 34.98377 139.75624 12525 ft 297 kts 27°
2026-02-20 05:55 35.00025 139.77157 12891 ft 293 kts 42°
2026-02-20 05:56 35.01471 139.78899 13021 ft 292 kts 42°
2026-02-20 05:56 35.02913 139.80638 13043 ft 291 kts 42°
2026-02-20 05:56 35.04349 139.82365 13044 ft 290 kts 42°
2026-02-20 05:56 35.05788 139.84088 13047 ft 290 kts 41°
2026-02-20 05:57 35.07227 139.85806 13045 ft 289 kts 41°
2026-02-20 05:57 35.08498 139.87712 13039 ft 292 kts 60°
2026-02-20 05:57 35.09119 139.90061 13043 ft 294 kts 84°
2026-02-20 05:57 35.08967 139.92529 13046 ft 292 kts 108°
2026-02-20 05:58 35.08091 139.94743 13045 ft 290 kts 126°
2026-02-20 05:58 35.06983 139.96801 13037 ft 290 kts 126°
2026-02-20 05:58 35.05875 139.98866 13039 ft 291 kts 126°
2026-02-20 05:58 35.04772 140.00928 13041 ft 291 kts 126°
2026-02-20 05:59 35.03666 140.02994 13033 ft 291 kts 126°
2026-02-20 05:59 35.02655 140.05138 13037 ft 292 kts 115°
2026-02-20 05:59 35.02049 140.07536 13040 ft 294 kts 103°
2026-02-20 05:59 35.01621 140.09981 13035 ft 294 kts 103°
2026-02-20 06:00 35.01183 140.12417 13034 ft 294 kts 103°
2026-02-20 06:00 35.00740 140.14855 13037 ft 294 kts 103°
2026-02-20 06:00 35.00298 140.17293 13036 ft 294 kts 103°
2026-02-20 06:00 35.00023 140.19766 13031 ft 295 kts 90°
2026-02-20 06:01 35.00168 140.22257 13033 ft 295 kts 83°
2026-02-20 06:01 35.00380 140.24750 13030 ft 296 kts 84°
2026-02-20 06:01 35.00584 140.27243 13029 ft 296 kts 84°
2026-02-20 06:01 35.00786 140.29739 13029 ft 296 kts 84°
2026-02-20 06:02 35.00996 140.32232 13022 ft 296 kts 81°
2026-02-20 06:02 35.01519 140.34650 13024 ft 294 kts 66°
2026-02-20 06:02 35.02399 140.36894 13020 ft 294 kts 62°
2026-02-20 06:02 35.03311 140.39129 13023 ft 294 kts 62°
2026-02-20 06:03 35.04220 140.41367 13026 ft 294 kts 62°
2026-02-20 06:03 35.05154 140.43624 13022 ft 294 kts 57°
2026-02-20 06:03 35.06451 140.45456 13032 ft 288 kts 33°
2026-02-20 06:03 35.08225 140.46540 13026 ft 280 kts
2026-02-20 06:04 35.10137 140.46727 12825 ft 272 kts 347°
2026-02-20 06:04 35.11901 140.46055 12606 ft 263 kts 327°
2026-02-20 06:04 35.13380 140.44775 12403 ft 260 kts 318°
2026-02-20 06:04 35.14809 140.43419 12201 ft 260 kts 319°
2026-02-20 06:05 35.16185 140.42123 12008 ft 259 kts 319°
2026-02-20 06:05 35.17614 140.40780 11810 ft 259 kts 319°
2026-02-20 06:05 35.19036 140.39443 11612 ft 258 kts 319°
2026-02-20 06:05 35.20457 140.38105 11413 ft 257 kts 319°
2026-02-20 06:06 35.21869 140.36777 11213 ft 256 kts 318°
2026-02-20 06:06 35.23282 140.35446 11021 ft 255 kts 318°
2026-02-20 06:06 35.24684 140.34121 10826 ft 255 kts 318°
2026-02-20 06:06 35.26083 140.32797 10618 ft 254 kts 318°
2026-02-20 06:07 35.27478 140.31479 10426 ft 253 kts 318°
2026-02-20 06:07 35.28868 140.30165 10229 ft 252 kts 318°
2026-02-20 06:07 35.30255 140.28854 10035 ft 252 kts 318°
2026-02-20 06:07 35.31639 140.27542 9822 ft 251 kts 318°
2026-02-20 06:08 35.33037 140.26214 9609 ft 251 kts 318°
2026-02-20 06:08 35.34417 140.24906 9427 ft 251 kts 319°
2026-02-20 06:08 35.35797 140.23598 9224 ft 251 kts 320°
2026-02-20 06:08 35.37333 140.22566 9040 ft 255 kts 337°
2026-02-20 06:09 35.39088 140.22178 8928 ft 260 kts 356°
2026-02-20 06:09 35.40906 140.22347 8856 ft 263 kts
2026-02-20 06:09 35.42353 140.22477 8814 ft 262 kts 360°
2026-02-20 06:09 35.43904 140.22584 8747 ft 262 kts 359°
2026-02-20 06:10 35.45725 140.22697 8666 ft 262 kts 359°
2026-02-20 06:10 35.47544 140.22806 8587 ft 262 kts 359°
2026-02-20 06:10 35.49361 140.22920 8502 ft 261 kts 360°
2026-02-20 06:10 35.50564 140.22999 8449 ft 261 kts 360°
2026-02-20 06:11 35.52404 140.23125 8370 ft 261 kts 360°
2026-02-20 06:11 35.54214 140.23251 8292 ft 261 kts
2026-02-20 06:11 35.56026 140.23381 8209 ft 261 kts
2026-02-20 06:11 35.57837 140.23514 8132 ft 261 kts
2026-02-20 06:12 35.59639 140.23520 8054 ft 258 kts 349°
2026-02-20 06:12 35.61357 140.22970 7984 ft 254 kts 336°
2026-02-20 06:12 35.63021 140.22235 7905 ft 254 kts 337°
2026-02-20 06:12 35.64685 140.21509 7828 ft 254 kts 337°
2026-02-20 06:13 35.66357 140.20783 7749 ft 254 kts 337°
2026-02-20 06:13 35.68043 140.20050 7669 ft 254 kts 336°
2026-02-20 06:13 35.69563 140.18999 7598 ft 249 kts 317°
2026-02-20 06:13 35.70699 140.17432 7534 ft 245 kts 299°
2026-02-20 06:14 35.71352 140.15467 7457 ft 253 kts 276°
2026-02-20 06:14 35.71169 140.13356 7377 ft 250 kts 247°
2026-02-20 06:14 35.70145 140.11656 7305 ft 252 kts 218°
2026-02-20 06:14 35.68542 140.10778 7230 ft 256 kts 195°
2026-02-20 06:15 35.66787 140.10373 7157 ft 257 kts 191°
2026-02-20 06:15 35.65017 140.10028 7081 ft 257 kts 191°
2026-02-20 06:15 35.63251 140.09693 7007 ft 257 kts 191°
2026-02-20 06:15 35.61484 140.09357 6940 ft 257 kts 191°
2026-02-20 06:16 35.59718 140.09020 6864 ft 256 kts 191°
2026-02-20 06:16 35.57962 140.08683 6793 ft 256 kts 191°
2026-02-20 06:16 35.56200 140.08350 6716 ft 255 kts 189°
2026-02-20 06:16 35.54430 140.08366 6577 ft 253 kts 178°
2026-02-20 06:17 35.52702 140.08503 6461 ft 243 kts 178°
2026-02-20 06:17 35.51090 140.08636 6416 ft 220 kts 179°
2026-02-20 06:17 35.49616 140.08758 6362 ft 206 kts 179°
2026-02-20 06:17 35.48196 140.08874 6314 ft 203 kts 179°
2026-02-20 06:18 35.46794 140.08987 6265 ft 202 kts 179°
2026-02-20 06:18 35.45394 140.09098 6216 ft 201 kts 179°
2026-02-20 06:18 35.43998 140.09206 6175 ft 201 kts 179°
2026-02-20 06:18 35.42601 140.09313 6134 ft 201 kts 179°
2026-02-20 06:19 35.41173 140.09424 6068 ft 210 kts 178°
2026-02-20 06:19 35.39702 140.09542 5857 ft 211 kts 178°
2026-02-20 06:19 35.38240 140.09659 5591 ft 209 kts 178°
2026-02-20 06:19 35.36793 140.09774 5318 ft 208 kts 177°
2026-02-20 06:20 35.35353 140.09889 5052 ft 207 kts 177°
2026-02-20 06:20 35.33921 140.10004 4769 ft 206 kts 176°
2026-02-20 06:20 35.32498 140.10017 4491 ft 205 kts 186°
2026-02-20 06:20 35.31107 140.09657 4220 ft 205 kts 198°
2026-02-20 06:21 35.29818 140.08929 4053 ft 205 kts 210°
2026-02-20 06:21 35.28669 140.07856 4033 ft 206 kts 223°
2026-02-20 06:21 35.27745 140.06514 4021 ft 204 kts 235°
2026-02-20 06:21 35.27076 140.05043 4035 ft 192 kts 247°
2026-02-20 06:22 35.26840 140.03462 4042 ft 190 kts 270°
2026-02-20 06:22 35.27141 140.01892 4030 ft 191 kts 294°
2026-02-20 06:22 35.27803 140.00476 4027 ft 192 kts 299°
2026-02-20 06:22 35.28488 139.99081 4016 ft 192 kts 304°
2026-02-20 06:23 35.29415 139.97910 4017 ft 193 kts 322°
2026-02-20 06:23 35.30567 139.97059 4033 ft 193 kts 330°
2026-02-20 06:23 35.31748 139.96232 4018 ft 193 kts 329°
2026-02-20 06:23 35.32910 139.95412 4030 ft 193 kts 329°
2026-02-20 06:24 35.34079 139.94587 4028 ft 194 kts 329°
2026-02-20 06:24 35.35238 139.93768 4046 ft 186 kts 329°
2026-02-20 06:24 35.36296 139.93021 4008 ft 169 kts 329°
2026-02-20 06:24 35.37308 139.92306 3997 ft 167 kts 329°
2026-02-20 06:25 35.38316 139.91594 3750 ft 166 kts 329°
2026-02-20 06:25 35.39328 139.90879 3524 ft 165 kts 329°
2026-02-20 06:25 35.40309 139.90186 3300 ft 165 kts 329°
2026-02-20 06:25 35.41300 139.89486 3059 ft 164 kts 329°
2026-02-20 06:26 35.42284 139.88790 2844 ft 157 kts 329°
2026-02-20 06:26 35.43213 139.88134 2621 ft 153 kts 330°
2026-02-20 06:26 35.44119 139.87492 2414 ft 150 kts 330°
2026-02-20 06:26 35.45027 139.86850 2202 ft 149 kts 330°
2026-02-20 06:27 35.45923 139.86216 1998 ft 148 kts 330°
2026-02-20 06:27 35.46814 139.85586 1794 ft 147 kts 330°
2026-02-20 06:27 35.47700 139.84959 1583 ft 147 kts 331°
2026-02-20 06:27 35.48583 139.84333 1380 ft 146 kts 331°
2026-02-20 06:28 35.49475 139.83701 1172 ft 146 kts 331°
2026-02-20 06:28 35.50353 139.83079 971 ft 145 kts 331°
2026-02-20 06:28 35.51225 139.82460 745 ft 143 kts 330°
2026-02-20 06:28 35.52082 139.81848 571 ft 143 kts 331°
2026-02-20 06:29 35.52936 139.81241 377 ft 141 kts 331°
2026-02-20 06:29 35.53786 139.80632 198 ft 141 kts 332°
2026-02-20 06:29 35.54648 139.80027 49 ft 140 kts 333°
2026-02-20 06:29 35.55410 139.79493 28 ft 97 kts 330°
2026-02-20 06:30 35.55784 139.79226 27 ft 47 kts 330°
2026-02-20 06:30 35.56044 139.79018 27 ft 42 kts 314°